Погода в Коштугах

Россия / Вологодская область     60°41′52″N   35°59′54″E
темп.,
°C
ветер,
м/с
пор.,
м/с
влажн.,
%
обл.,
%
осадки,
мм/ч
давл.,
гПа
погр.,
м
19 апреля, пн
пн1900:000в29833 0.0 1032154
03:00−1в26845 0.0 1033122
06:00−3вюв29885 0.0 1033169
09:00+4в36670 0.0 1033479
12:00+6вюв45575 0.0 10321150
15:00+8вюв355263 0.0 10321344
18:00+7в256378 0.0 1031431
21:00+1в2885100 0.0 1031149
20 апреля, вт
вт2000:000вюв210835 0.0 1031180
03:00−1вюв28885 0.0 1031161
06:00−1юв39855 0.0 1030227
09:00+4юв48580 0.0 1029711
12:00+7юв57450 0.0 10281189
15:00+8юв573921 0.0 10261408
18:00+7вюв3949100 0.0 1024664
21:00+3вюв2972100 0.0 1022201
21 апреля, ср
ср2100:00+2вюв3117567 0.0 1020289
03:00+1вюв3117876 0.0 1018290
06:00+1в31277100 0.0 1015393
09:00+4в41061100 0.0 1011630
12:00+2в41192100 0.6 1008862
15:00+2в31097100 2.9 1005614
18:00+2в2797100 0.7 1003484
21:00+1вюв2798100 0.9 1001513
22 апреля, чт
чт2200:00+1ююв13100100 1.3 1001180
03:00+1ю3798100 1.9 1002484
06:00+1ююз3897100 1.0 1003654
09:00+2ююз478598 1.3 1004812
12:00+3юз468397 0.3 1006817
15:00+3зюз488697 0.5 1008824
18:00+3юз3997100 0.1 1011750
21:00+3ююз3992100 0.1 1013459
23 апреля, пт
пт2300:00+3ю369359 0.0 1013158
03:000ююв38945 0.0 1014131
06:00+1юв31191100 0.0 1013251
09:00+7юв5138799 0.0 1011456
12:00+11ююв61280100 0.0 1010985
15:00+12ююв61376100 0.0 10091164
18:00+12ююв61379100 0.1 10081164
21:00+9ю2892100 1.4 1008306